Location: Newark
(40.7119°N, 74.0097°W)
Time: 23:04:30
(UTC+00:00)

Tiangong - Pass Details

Date: 27 June 2021
Orbit: 374 x 386 km, 41.5° (Epoch: 27 July)

Event Time Altitude Azimuth Distance (km) Brightness Sun altitude
Exits shadow 06:43:06 37° 76° (ENE) 606 2.3 -21.6°
Drops below altitude 10° 06:45:07 10° 81° (E) 1,387 4.3 -21.4°
Sets 06:47:12 0° 83° (E) 2,242 5.4 -21.2°
